| time (UTC) | temp F | wind direction | speed knots | gust knots | rain 1hr in | rain 24hr in | rain mn in | humidity % | barometer mb |
| 20260502234528 | 69 | 87 | 3.5 | 9.6 | 0.00 | 0.00 | 0.00 | 30 | 1017.9 |
| 20260502233030 | 69 | 71 | 1.7 | 7.0 | 0.00 | 0.00 | 0.00 | 29 | 1018.2 |
| 20260502231531 | 69 | 45 | 5.2 | 10.4 | 0.00 | 0.00 | 0.00 | 29 | 1018.4 |
| 20260502230030 | 69 | 5 | 6.1 | 27.8 | 0.00 | 0.00 | 0.00 | 32 | 1018.6 |
| 20260502224532 | 67 | 80 | 0.9 | 7.8 | 0.00 | 0.00 | 0.00 | 32 | 1018.6 |
| 20260502223029 | 68 | 333 | 3.5 | 9.6 | 0.00 | 0.00 | 0.00 | 31 | 1018.9 |
| 20260502221533 | 68 | 0 | 0.0 | 3.5 | 0.00 | 0.00 | 0.00 | 32 | 1019.3 |
| 20260502220031 | 67 | 283 | 3.5 | 9.6 | 0.00 | 0.00 | 0.00 | 33 | 1019.5 |
| 20260502214530 | 69 | 332 | 7.8 | 12.2 | 0.00 | 0.00 | 0.00 | 32 | 1019.8 |
| 20260502213039 | 68 | 148 | 3.5 | 10.4 | 0.00 | 0.00 | 0.00 | 33 | 1019.9 |
| 20260502211532 | 69 | 0 | 3.5 | 12.2 | 0.00 | 0.00 | 0.00 | 32 | 1020.1 |
| 20260502210031 | 68 | 32 | 3.5 | 13.0 | 0.00 | 0.00 | 0.00 | 33 | 1020.1 |
| 20260502204532 | 67 | 296 | 4.3 | 12.2 | 0.00 | 0.00 | 0.00 | 34 | 1020.4 |
| 20260502203032 | 66 | 338 | 7.0 | 11.3 | 0.00 | 0.00 | 0.00 | 34 | 1020.5 |
| 20260502201534 | 67 | 13 | 4.3 | 10.4 | 0.00 | 0.00 | 0.00 | 35 | 1020.8 |
| 20260502200030 | 66 | 41 | 4.3 | 11.3 | 0.00 | 0.00 | 0.00 | 35 | 1021.0 |
| 20260502194531 | 66 | 319 | 7.0 | 11.3 | 0.00 | 0.00 | 0.00 | 34 | 1021.1 |
| 20260502193032 | 66 | 19 | 5.2 | 13.9 | 0.00 | 0.00 | 0.00 | 35 | 1021.3 |
| 20260502191529 | 66 | 50 | 8.7 | 13.9 | 0.00 | 0.00 | 0.00 | 35 | 1021.4 |
| 20260502190029 | 65 | 76 | 7.0 | 17.4 | 0.00 | 0.00 | 0.00 | 36 | 1021.4 |
| 20260502184531 | 65 | 51 | 7.8 | 14.8 | 0.00 | 0.00 | 0.00 | 37 | 1021.5 |
| 20260502183033 | 65 | 49 | 12.2 | 18.2 | 0.00 | 0.00 | 0.00 | 36 | 1021.7 |
| 20260502181543 | 65 | 35 | 9.6 | 18.2 | 0.00 | 0.00 | 0.00 | 38 | 1021.9 |
| 20260502163033 | 59 | 51 | 4.3 | 12.2 | 0.00 | 0.00 | 0.00 | 43 | 1022.2 |
| 20260502161530 | 59 | 20 | 4.3 | 9.6 | 0.00 | 0.00 | 0.00 | 43 | 1022.3 |
| 20260502151529 | 55 | 44 | 0.9 | 7.0 | 0.00 | 0.00 | 0.00 | 47 | 1022.4 |
| 20260502123028 | 48 | 294 | 7.0 | 13.9 | 0.00 | 0.00 | 0.00 | 61 | 1021.1 |
| 20260502121531 | 48 | 317 | 9.6 | 15.6 | 0.00 | 0.00 | 0.00 | 62 | 1020.9 |
| 20260502114531 | 46 | 288 | 3.5 | 9.6 | 0.00 | 0.00 | 0.00 | 63 | 1020.6 |
| 20260502113028 | 44 | 284 | 3.5 | 7.8 | 0.00 | 0.00 | 0.00 | 62 | 1020.6 |
| 20260502111528 | 43 | 268 | 7.0 | 9.6 | 0.00 | 0.00 | 0.00 | 61 | 1020.6 |
| 20260502110031 | 40 | 295 | 6.1 | 11.3 | 0.00 | 0.00 | 0.00 | 65 | 1020.5 |
| 20260502104530 | 38 | 229 | 4.3 | 6.1 | 0.00 | 0.00 | 0.00 | 63 | 1020.3 |
| 20260502103030 | 38 | 274 | 1.7 | 19.1 | 0.00 | 0.00 | 0.00 | 62 | 1020.2 |
| 20260502101535 | 39 | 190 | 0.9 | 2.6 | 0.00 | 0.00 | 0.00 | 64 | 1019.6 |
| 20260502091530 | 44 | 214 | 0.0 | 2.6 | 0.00 | 0.00 | 0.00 | 56 | 1019.2 |
| 20260502071528 | 49 | 0 | 0.0 | 0.0 | 0.00 | 0.00 | 0.00 | 42 | 1018.8 |
| 20260502070028 | 49 | 0 | 0.0 | 2.6 | 0.00 | 0.00 | 0.00 | 41 | 1018.9 |
| 20260502064549 | 49 | 232 | 0.9 | 3.5 | 0.00 | 0.00 | 0.00 | 40 | 1018.8 |
| 20260502063036 | 51 | 232 | 0.9 | 2.6 | 0.00 | 0.00 | 0.00 | 38 | 1018.7 |
| 20260502061528 | 50 | 232 | 1.7 | 4.3 | 0.00 | 0.00 | 0.00 | 39 | 1018.7 |
| 20260502060030 | 49 | 292 | 0.9 | 2.6 | 0.00 | 0.00 | 0.00 | 42 | 1018.5 |
| 20260502054530 | 50 | 292 | 1.7 | 3.5 | 0.00 | 0.00 | 0.00 | 41 | 1018.5 |
| 20260502053028 | 50 | 277 | 1.7 | 5.2 | 0.00 | 0.00 | 0.00 | 40 | 1018.3 |
| 20260502051538 | 51 | 285 | 1.7 | 3.5 | 0.00 | 0.00 | 0.00 | 40 | 1018.3 |
| 20260502050029 | 53 | 303 | 2.6 | 4.3 | 0.00 | 0.00 | 0.00 | 37 | 1018.3 |
| 20260502044538 | 53 | 0 | 0.0 | 0.0 | 0.00 | 0.00 | 0.00 | 37 | 1018.3 |
| 20260502043031 | 54 | 290 | 1.7 | 3.5 | 0.00 | 0.00 | 0.00 | 36 | 1018.3 |
| 20260502041534 | 55 | 274 | 1.7 | 5.2 | 0.00 | 0.00 | 0.00 | 35 | 1018.2 |
| 20260502040040 | 56 | 275 | 3.5 | 7.8 | 0.00 | 0.00 | 0.00 | 35 | 1018.1 |
| 20260502034533 | 58 | 281 | 5.2 | 7.8 | 0.00 | 0.00 | 0.00 | 33 | 1018.0 |
| 20260502033033 | 59 | 267 | 4.3 | 9.6 | 0.00 | 0.00 | 0.00 | 33 | 1017.6 |
| 20260502031534 | 60 | 273 | 5.2 | 7.8 | 0.00 | 0.00 | 0.00 | 32 | 1017.5 |
| 20260502030032 | 62 | 217 | 2.6 | 6.1 | 0.00 | 0.00 | 0.00 | 30 | 1017.3 |
| 20260502024532 | 62 | 191 | 2.6 | 6.1 | 0.00 | 0.00 | 0.00 | 30 | 1017.2 |
| 20260502023037 | 64 | 181 | 1.7 | 6.1 | 0.00 | 0.00 | 0.00 | 29 | 1017.0 |
| 20260502021607 | 66 | 183 | 1.7 | 5.2 | 0.00 | 0.00 | 0.00 | 30 | 1017.0 |
| 20260502020033 | 69 | 184 | 2.6 | 5.2 | 0.00 | 0.00 | 0.00 | 27 | 1016.9 |
| 20260502014543 | 71 | 166 | 2.6 | 5.2 | 0.00 | 0.00 | 0.00 | 26 | 1017.0 |
| 20260502013031 | 73 | 184 | 3.5 | 8.7 | 0.00 | 0.00 | 0.00 | 24 | 1017.0 |
| 20260502011530 | 73 | 213 | 5.2 | 10.4 | 0.00 | 0.00 | 0.00 | 21 | 1017.0 |
| 20260502010033 | 74 | 251 | 4.3 | 11.3 | 0.00 | 0.00 | 0.00 | 22 | 1017.1 |
| 20260502004535 | 73 | 257 | 3.5 | 9.6 | 0.00 | 0.00 | 0.00 | 22 | 1017.2 |
| 20260502003031 | 74 | 212 | 4.3 | 10.4 | 0.00 | 0.00 | 0.00 | 22 | 1017.3 |
| 20260502001549 | 74 | 266 | 4.3 | 16.5 | 0.00 | 0.00 | 0.00 | 22 | 1017.2 |
| 20260502000035 | 74 | 254 | 6.1 | 13.0 | 0.00 | 0.00 | 0.00 | 21 | 1017.5 |